[[{"header":{"parameterUnit":"m.s-1","parameterCategory":1,"la1":30.2991,"la2":30.254,"lo1":-89.0895,"lo2":-89.0444,"dy":0.0017,"dx":0.0017,"nx":28,"ny":28,"refTime":"2025-03-06T09:00:00:Z","depth":0,"parameterNumber":2,"parameterNumberName":"U-component_of_WINDS"},"data":[0,0,0,0,0,0,0,0,0,0,0,0,0,0,0,0,0,0,0,0,0,0,0,0,0,0,0,0,0,0,0,0,0,0,0,0,0,0,0,0,0,0,0,0,0,0,0,0,0,0,0,0,0,0,0,0,0,0,1.8615,1.8616,0,1.869,1.8691,1.8692,1.872,1.872,1.8719,1.8719,1.8797,1.88,1.8802,0,0,0,0,0,0,0,0,0,0,0,0,0,1.8498,1.85,1.8615,1.8616,1.8617,1.869,1.8691,1.8692,1.872,1.872,1.8719,1.8719,1.8797,1.8799,1.8802,0,0,0,0,0,0,0,0,0,0,0,0,0,1.8558,1.85,1.8615,1.8639,1.8642,1.869,1.8691,1.8692,1.872,1.872,1.8719,1.8719,1.8796,1.8799,1.8802,1.8831,0,0,1.8813,1.8814,0,0,0,0,0,0,0,0,1.8555,1.8562,1.8635,1.8638,1.8641,1.8695,1.8678,1.8739,1.872,1.8691,1.8719,1.8719,1.8764,1.877,1.8785,1.8835,1.8838,1.8813,1.8815,1.8817,1.8818,0,0,0,0,0,0,0,1.855,1.8559,1.8645,1.8636,1.864,1.8648,1.8656,1.869,1.8728,1.8693,1.8695,1.8704,1.8765,1.8781,1.8787,1.8839,1.8813,1.8816,1.8818,1.882,1.8918,1.8919,0,0,0,0,0,0,1.8542,1.8556,1.8642,1.8647,1.8596,1.865,1.8659,1.8678,1.8728,1.8735,1.8704,1.8705,1.8776,1.8783,1.879,1.8827,1.8817,1.882,1.8822,1.8918,1.8918,1.8919,0,0,0,0,0,0,1.8539,1.8549,1.8639,1.8602,1.8614,1.8652,1.8674,1.868,1.8696,1.8736,1.8743,1.8713,1.8776,1.8785,1.8821,1.883,1.8822,1.8825,1.8917,1.8918,1.8918,1.8902,0,0,0,0,0,0,1.8536,1.8548,1.8559,1.8602,1.8616,1.8668,1.8674,1.8682,1.8702,1.8703,1.8747,1.8753,1.8776,1.8815,1.8824,1.8835,1.8827,1.8916,1.8917,1.8918,1.8902,1.8902,1.8902,0,0,0,0,0,1.8532,1.8551,1.8559,1.8569,1.863,1.8669,1.8677,1.8702,1.8702,1.8714,1.874,1.8752,1.8828,1.8819,1.8829,1.8841,1.8916,1.8917,1.8918,1.8902,1.8902,1.8902,0,0,0,0,0,0,1.8508,1.8557,1.8567,1.8601,1.863,1.8673,1.8688,1.8701,1.8732,1.8732,1.8763,1.8772,1.8806,1.8827,1.8816,1.8872,1.8873,1.8876,1.8857,1.8857,1.8858,1.8852,1.883,0,0,0,0,0,1.8507,1.8534,1.8575,1.8601,1.8616,1.865,1.8667,1.8685,1.8717,1.8729,1.8758,1.8789,1.8821,1.884,1.8871,1.8905,1.8916,1.8919,1.8919,1.8919,1.8921,1.8942,1.8944,1.8923,1.8923,1.8923,0,0,1.8504,1.8534,1.855,1.8597,1.8622,1.8651,1.866,1.8689,1.871,1.8734,1.877,1.8792,1.8829,1.8865,1.8882,1.8883,1.893,1.892,1.892,1.8923,1.8944,1.8946,1.8948,1.8924,1.8923,1.8923,0,0,1.8514,1.8539,1.8564,1.859,1.8627,1.865,1.8656,1.8698,1.8714,1.875,1.8769,1.8795,1.8848,1.8874,1.8894,1.8916,1.8928,1.8925,1.8926,1.8946,1.8948,1.895,1.8958,1.8961,1.8927,1.8927,1.8927,0,1.8506,1.8549,1.8576,1.8604,1.8625,1.8648,1.8674,1.8697,1.8744,1.8758,1.8759,1.8826,1.8853,1.8895,1.8901,1.8916,1.8925,1.892,1.8945,1.8947,1.8949,1.8958,1.8961,1.8926,1.8927,1.8927,1.8927,0,1.8538,1.8567,1.8583,1.8627,1.865,1.8677,1.8709,1.8729,1.8745,1.8767,1.8805,1.8838,1.8876,1.8888,1.8903,1.8933,1.8933,1.8939,1.8941,1.895,1.8959,1.8962,1.8926,1.8926,1.8926,1.8926,0,0,1.8534,1.8593,1.8599,1.862,1.8664,1.8688,1.8717,1.8754,1.8771,1.8803,1.8828,1.8873,1.888,1.8902,1.8921,1.8939,1.8955,1.8943,1.8945,1.8945,1.8992,1.8986,1.899,1.8964,1.8965,1.8965,1.8989,0,1.855,1.8602,1.8628,1.8669,1.8697,1.872,1.8746,1.8776,1.8799,1.8826,1.8852,1.8883,1.8889,1.8903,1.8922,1.8949,1.8965,1.8948,1.8989,1.899,1.8979,1.8994,1.8988,1.9009,1.8992,1.8993,1.8993,0,1.8575,1.8607,1.8651,1.8693,1.8706,1.8728,1.8765,1.8791,1.8827,1.8842,1.8869,1.8887,1.892,1.8919,1.8965,1.8953,1.8971,1.8987,1.8989,1.8994,1.8992,1.8999,1.9016,1.9019,1.8998,1.8998,1.8998,0,1.8569,1.8622,1.8656,1.8673,1.8723,1.8738,1.876,1.8795,1.8817,1.885,1.8864,1.89,1.892,1.8948,1.8977,1.8973,1.902,1.9021,1.9034,1.9034,1.9043,1.9042,1.9062,1.9054,1.9054,1.9054,1.9054,0,1.8584,1.861,1.8654,1.8674,1.8705,1.8735,1.8764,1.8788,1.8819,1.8846,1.8868,1.8893,1.8928,1.8958,1.898,1.9015,1.9024,1.9038,1.9044,1.9036,1.9034,1.9048,1.9048,1.9055,1.9055,1.9055,1.9055,0,1.8581,1.8611,1.865,1.8694,1.8706,1.8727,1.8766,1.8787,1.8811,1.8844,1.8854,1.8892,1.8928,1.8959,1.9006,1.9022,1.9058,1.9065,1.9046,1.9049,1.906,1.9058,1.909,1.9096,1.9084,1.9084,1.9084,0,1.8589,1.861,1.8657,1.8676,1.8697,1.8728,1.875,1.8781,1.8803,1.8847,1.8863,1.8901,1.8932,1.8988,1.9021,1.9057,1.9066,1.9074,1.9071,1.9063,1.9066,1.9065,1.9067,1.9074,1.9074,1.9074,1.9074,0,1.86,1.8614,1.8645,1.8681,1.8707,1.8737,1.8768,1.8783,1.882,1.8844,1.8881,1.8905,1.8954,1.8991,1.9032,1.9055,1.9071,1.9075,1.908,1.9072,1.906,1.9067,1.9046,1.9074,1.9074,1.9074,1.9074,1.9074,1.8603,1.8623,1.8659,1.8693,1.872,1.8749,1.8772,1.8799,1.883,1.8872,1.8889,1.8926,1.8963,1.9019,1.9043,1.9074,1.9076,1.9083,1.9085,1.9086,1.9085,1.9056,1.9081,1.9081,1.9081,1.9081,1.9081,0,1.8615,1.864,1.8671,1.8714,1.8741,1.8754,1.8789,1.8811,1.8844,1.8877,1.8908,1.8951,1.8987,1.9023,1.9062,1.908,1.9088,1.9089,1.9088,1.9093,1.9081,1.9073,1.9082,1.9082,1.9082,1.9082,1.9082,1.9082,1.8625,1.8659,1.8678,1.8727,1.8752,1.8789,1.8808,1.8835,1.8862,1.8909,1.8939,1.8963,1.8997,1.9039,1.9074,1.9083,1.9097,1.9096,1.9107,1.9095,1.9094,1.9094,1.9086,1.9098,1.9098,1.9118,1.9118,1.9118]},{"header":{"parameterUnit":"m.s-1","parameterCategory":1,"la1":30.2991,"la2":30.254,"lo1":-89.0895,"lo2":-89.0444,"dy":0.0017,"dx":0.0017,"nx":28,"ny":28,"refTime":"2025-03-06T09:00:00:Z","depth":0,"parameterNumber":3,"parameterNumberName":"V-component_of_WINDS"},"data":[0,0,0,0,0,0,0,0,0,0,0,0,0,0,0,0,0,0,0,0,0,0,0,0,0,0,0,0,0,0,0,0,0,0,0,0,0,0,0,0,0,0,0,0,0,0,0,0,0,0,0,0,0,0,0,0,0,0,-2.7082,-2.7083,0,-2.7148,-2.7148,-2.7149,-2.7175,-2.7175,-2.7175,-2.7175,-2.7239,-2.724,-2.7242,0,0,0,0,0,0,0,0,0,0,0,0,0,-2.6978,-2.698,-2.7082,-2.7083,-2.7084,-2.7148,-2.7148,-2.7149,-2.7175,-2.7175,-2.7175,-2.7175,-2.7238,-2.724,-2.7242,0,0,0,0,0,0,0,0,0,0,0,0,0,-2.7031,-2.698,-2.7082,-2.7104,-2.7107,-2.7147,-2.7149,-2.715,-2.7175,-2.7175,-2.7175,-2.7175,-2.7237,-2.724,-2.7243,-2.7264,0,0,-2.7251,-2.7252,0,0,0,0,0,0,0,0,-2.7028,-2.7035,-2.71,-2.7103,-2.7106,-2.7153,-2.7135,-2.7188,-2.7176,-2.7149,-2.7175,-2.7175,-2.721,-2.7215,-2.7228,-2.7267,-2.727,-2.7251,-2.7253,-2.7254,-2.7255,0,0,0,0,0,0,0,-2.7024,-2.7032,-2.7108,-2.7101,-2.7105,-2.7111,-2.7118,-2.7145,-2.718,-2.7152,-2.7154,-2.7161,-2.7212,-2.7225,-2.7229,-2.7271,-2.7251,-2.7254,-2.7255,-2.7256,-2.7334,-2.7335,0,0,0,0,0,0,-2.7017,-2.7029,-2.7106,-2.711,-2.7066,-2.7113,-2.7121,-2.7138,-2.718,-2.7186,-2.7161,-2.7162,-2.722,-2.7226,-2.7232,-2.7262,-2.7254,-2.7257,-2.7258,-2.7334,-2.7334,-2.7335,0,0,0,0,0,0,-2.7015,-2.7024,-2.7103,-2.707,-2.7081,-2.7115,-2.7134,-2.714,-2.7153,-2.7187,-2.7193,-2.7169,-2.7221,-2.7228,-2.7257,-2.7265,-2.7258,-2.726,-2.7333,-2.7334,-2.7335,-2.7321,0,0,0,0,0,0,-2.7012,-2.7023,-2.7031,-2.707,-2.7082,-2.7127,-2.7134,-2.7141,-2.7158,-2.716,-2.7196,-2.7202,-2.7221,-2.7253,-2.726,-2.7268,-2.7263,-2.7333,-2.7334,-2.7334,-2.7321,-2.7321,-2.7321,0,0,0,0,0,-2.7008,-2.7024,-2.7032,-2.7041,-2.7094,-2.7128,-2.7135,-2.7158,-2.7159,-2.7168,-2.719,-2.7201,-2.7262,-2.7255,-2.7263,-2.7273,-2.7332,-2.7333,-2.7334,-2.7321,-2.7321,-2.7321,0,0,0,0,0,0,-2.6983,-2.7029,-2.7039,-2.7067,-2.7094,-2.7132,-2.7144,-2.7157,-2.7182,-2.7183,-2.7209,-2.7217,-2.7244,-2.7261,-2.7252,-2.7298,-2.7298,-2.7301,-2.7285,-2.7286,-2.7286,-2.7282,-2.7265,0,0,0,0,0,-2.6981,-2.7005,-2.7044,-2.7065,-2.7078,-2.7109,-2.7125,-2.714,-2.7168,-2.7179,-2.7203,-2.7229,-2.7255,-2.7271,-2.7296,-2.7324,-2.7333,-2.7334,-2.7334,-2.7334,-2.7336,-2.7355,-2.7357,-2.7338,-2.7338,-2.7338,0,0,-2.6976,-2.7005,-2.7018,-2.7061,-2.7083,-2.7108,-2.7118,-2.7143,-2.7162,-2.7182,-2.7212,-2.7231,-2.7262,-2.7291,-2.7305,-2.7306,-2.7344,-2.7336,-2.7335,-2.7338,-2.7356,-2.7358,-2.7359,-2.7339,-2.7338,-2.7338,0,0,-2.6981,-2.7005,-2.7027,-2.705,-2.7084,-2.7105,-2.7111,-2.7148,-2.7162,-2.7193,-2.721,-2.7232,-2.7275,-2.7298,-2.7314,-2.7331,-2.7342,-2.7339,-2.734,-2.7357,-2.7359,-2.736,-2.7368,-2.737,-2.734,-2.734,-2.734,0,-2.6971,-2.701,-2.7036,-2.7061,-2.708,-2.7103,-2.7126,-2.7146,-2.7186,-2.7199,-2.72,-2.7257,-2.7279,-2.7315,-2.732,-2.7332,-2.734,-2.7335,-2.7356,-2.7358,-2.736,-2.7368,-2.737,-2.734,-2.734,-2.734,-2.734,0,-2.6997,-2.7023,-2.7037,-2.7078,-2.7099,-2.7122,-2.7152,-2.717,-2.7185,-2.7205,-2.7238,-2.7265,-2.7298,-2.7308,-2.7321,-2.7346,-2.7346,-2.7351,-2.7353,-2.7361,-2.7369,-2.7372,-2.7339,-2.7339,-2.734,-2.734,0,0,-2.6985,-2.7044,-2.7048,-2.7069,-2.711,-2.7131,-2.7157,-2.719,-2.7206,-2.7234,-2.7256,-2.7294,-2.73,-2.7319,-2.7336,-2.7351,-2.7366,-2.7355,-2.7356,-2.7357,-2.7398,-2.7394,-2.7397,-2.7373,-2.7374,-2.7374,-2.7396,0,-2.6997,-2.7045,-2.7071,-2.7108,-2.7134,-2.7157,-2.718,-2.7208,-2.7228,-2.7253,-2.7276,-2.7303,-2.7308,-2.732,-2.7336,-2.736,-2.7374,-2.7359,-2.7395,-2.7396,-2.7388,-2.7401,-2.7397,-2.7415,-2.7399,-2.7399,-2.7399,0,-2.7017,-2.7047,-2.7088,-2.7129,-2.7141,-2.7161,-2.7196,-2.7219,-2.7252,-2.7266,-2.7289,-2.7306,-2.7334,-2.7334,-2.7374,-2.7363,-2.738,-2.7394,-2.7395,-2.74,-2.7399,-2.7407,-2.7422,-2.7425,-2.7404,-2.7404,-2.7404,0,-2.7007,-2.7058,-2.7089,-2.7106,-2.7154,-2.7168,-2.7189,-2.7222,-2.7242,-2.7272,-2.7285,-2.7317,-2.7335,-2.7359,-2.7385,-2.7382,-2.7423,-2.7424,-2.7436,-2.7436,-2.7444,-2.7443,-2.7462,-2.7452,-2.7452,-2.7452,-2.7452,0,-2.7018,-2.7042,-2.7086,-2.7106,-2.7134,-2.7164,-2.7191,-2.7213,-2.7243,-2.7267,-2.7288,-2.731,-2.7342,-2.7368,-2.7388,-2.742,-2.7427,-2.744,-2.7445,-2.7438,-2.7437,-2.745,-2.745,-2.7453,-2.7453,-2.7453,-2.7453,0,-2.7011,-2.7042,-2.7078,-2.7123,-2.7135,-2.7154,-2.7192,-2.7212,-2.7235,-2.7265,-2.7274,-2.731,-2.7343,-2.7371,-2.7412,-2.7426,-2.7459,-2.7464,-2.7448,-2.7451,-2.7463,-2.7462,-2.7492,-2.7498,-2.7482,-2.7483,-2.7483,0,-2.7016,-2.7036,-2.7084,-2.7103,-2.7124,-2.7154,-2.7175,-2.7205,-2.7227,-2.7267,-2.7283,-2.7318,-2.7347,-2.7398,-2.7427,-2.746,-2.7467,-2.7476,-2.7472,-2.7466,-2.7469,-2.7469,-2.7472,-2.7476,-2.7476,-2.7476,-2.7476,0,-2.7023,-2.7038,-2.7069,-2.7106,-2.7131,-2.7161,-2.7192,-2.7206,-2.7242,-2.7265,-2.73,-2.7323,-2.7368,-2.7402,-2.7439,-2.746,-2.7474,-2.7477,-2.7482,-2.7476,-2.7467,-2.7474,-2.745,-2.7476,-2.7476,-2.7476,-2.7476,-2.7476,-2.7024,-2.7043,-2.7081,-2.7116,-2.7142,-2.7171,-2.7194,-2.7221,-2.7251,-2.7291,-2.7307,-2.7343,-2.7378,-2.7429,-2.7451,-2.7479,-2.7481,-2.7488,-2.749,-2.7491,-2.7491,-2.7462,-2.7486,-2.7486,-2.7486,-2.7486,-2.7486,0,-2.7033,-2.7059,-2.7091,-2.7134,-2.7162,-2.7175,-2.721,-2.7232,-2.7264,-2.7296,-2.7326,-2.7367,-2.7402,-2.7435,-2.7471,-2.7488,-2.7496,-2.7497,-2.7496,-2.7501,-2.7486,-2.7479,-2.749,-2.749,-2.749,-2.749,-2.749,-2.749,-2.7041,-2.7076,-2.7096,-2.7146,-2.7172,-2.7209,-2.7228,-2.7255,-2.7282,-2.7328,-2.7357,-2.738,-2.7413,-2.7452,-2.7485,-2.7494,-2.7507,-2.7506,-2.7517,-2.7502,-2.7502,-2.7501,-2.7495,-2.7508,-2.7508,-2.753,-2.753,-2.753]}]]